Location: Newark
(12.4436°N, 0.6167°W)
Time: 14:34:12
(UTC+00:00)

deb Explorer IX - Pass Details

Date: 14 December 2019
Orbit: 548 x 1101 km, 38.8° (Epoch: 19 January)

Event Time Altitude Azimuth Distance (km) Brightness Sun altitude
Rises 12:58:20 0° 252° (WSW) 2,763 ? 51.3°
Reaches altitude 10° 13:00:41 10° 263° (W) 1,914 ? 51.1°
Maximum altitude 13:04:37 31° 327° (NNW) 1,104 ? 50.7°
Drops below altitude 10° 13:09:01 10° 29° (NNE) 2,158 ? 50.2°
Sets 13:11:50 0° 39° (NE) 3,180 ? 49.9°
